Regional Weather Roundup
Issued by NWS

Home | Current Version | Previous Version | Text Only | Print | Product List | Glossary On
Versions: 1 2 3 4 5 6 7 8 9 10 11 12 13 14 15 16 17 18 19 20 21 22 23 24 25 26 27 28 29 30 31 32 33 34 35 36 37 38 39 40 41 42 43 44 45 46 47 48 49 50
000
ASUS44 KOUN 211410
RWROK

WEATHER ROUNDUP FOR OKLAHOMA
NATIONAL WEATHER SERVICE NORMAN OK
900 AM CDT SAT APR 21 2018

NOTE: "FAIR" INDICATES FEW OR NO CLOUDS BELOW 12,000 FEET WITH NO
      SIGNIFICANT WEATHER AND/OR OBSTRUCTIONS TO VISIBILITY.

OKZ001>007-009>012-014-015-017-211500-
NORTHWEST OKLAHOMA AND THE PANHANDLE

CITY           SKY/WX    TMP DP  RH WIND       PRES   REMARKS
GAGE           CLOUDY    47  46  97 E10       30.04R FOG
GUYMON         FOG       43  43 100 N10       30.08R VSB 1
ENID/WOODRING  RAIN      48  46  93 E12       30.09S
$$

OKZ016-021>023-033>039-044-045-211500-
SOUTHWEST OKLAHOMA

CITY           SKY/WX    TMP DP  RH WIND       PRES   REMARKS
LAWTON/REGL    CLOUDY    52  52 100 E13       29.99F FOG
LAWTON/FT SILL DRIZZLE   51  51 100 E8G20     29.98F
FREDERICK      CLOUDY    52  51  97 E16       29.95S FOG
CLINTON        CLOUDY    48  47  96 E14       30.02R FOG
HOBART         LGT RAIN  51  49  92 E9        30.00F FOG
ALTUS AFB      DRIZZLE   52  52 100 E12       29.98S FOG
$$

OKZ018>020-024>031-211500-
CENTRAL OKLAHOMA

CITY           SKY/WX    TMP DP  RH WIND       PRES   REMARKS
OKLAHOMA CITY  LGT RAIN  47  46  97 E22G32    30.02F FOG
OKC/WILEY POST LGT RAIN  48  47  96 E12G28    30.05R
OKC/TINKER AFB RAIN      47  47 100 E18G26    30.05F FOG
STILLWATER     HVY RAIN  48  44  86 E20       30.09F
GUTHRIE        LGT RAIN  47  45  93 E21G32    30.03F FOG
$$

OKZ008-013-054>072-211500-
NORTHEAST OKLAHOMA

CITY           SKY/WX    TMP DP  RH WIND       PRES   REMARKS
TULSA          CLOUDY    53  40  61 N7        30.14R
TULSA/JONES    LGT RAIN  52  41  66 N5        30.15R
PONCA CITY     LGT RAIN  48  42  80 E15       30.10R
BARTLESVILLE   CLOUDY    51  42  71 CALM      30.18R
MUSKOGEE       CLOUDY    56  39  53 VRB3      30.15R
$$

OKZ032-040>043-046>053-073>077-211500-
SOUTH CENTRAL/SOUTHEAST OKLAHOMA

CITY           SKY/WX    TMP DP  RH WIND       PRES   REMARKS
ARDMORE/DWNTWN RAIN      52  46  82 E7        30.01F
MCALESTER      CLOUDY    57  41  55 VRB3      30.09R
$$




USA.gov is the U.S. government's official web portal to all federal, state and local government web resources and services.